Wind_Speed
11 10 10 9 8 7 5 5 5 4 3 1 0 1 2 3 5 6 7 8 9 9 9 9 9 10 11 11 10 10 10 10 10 9 8 8 9 7 6 6 7 8 8 8 8 7 6 6 6 5 6 6 6 7 7 7 7 7 5 6 7 6 5 9 13 14 15 15 18 20 21 20 17 19 17 14 18 21 21 21 22 24 24 24 25 25 25 24
11 10 10 9 8 7 6 7 6 5 3 2 1 0 1 3 5 7 8 9 9 9 9 9 9 10 11 11 11 11 10 10 9 8 7 8 8 7 6 7 8 9 8 8 8 8 7 6 6 5 5 5 6 6 7 8 7 5 4 6 6 8 12 15 17 17 17 17 17 18 19 21 20 19 17 14 21 23 20 20 21 21 22 21 21 21 21 21
11 11 10 10 8 8 8 8 7 5 4 3 2 1 2 4 6 8 9 9 9 9 9 9 9 10 10 10 10 10 9 9 8 8 7 8 8 7 8 8 8 9 9 9 9 9 8 8 7 6 5 4 6 6 7 7 6 4 2 3 6 11 16 15 14 15 16 15 15 15 17 22 21 19 18 17 24 24 18 18 18 19 19 19 19 19 20 20
11 11 11 11 10 10 9 8 7 5 4 2 1 1 3 5 7 9 9 9 9 9 9 10 10 10 9 9 9 8 9 8 7 8 8 8 8 9 8 8 8 8 8 8 8 8 8 8 7 6 5 4 6 5 5 5 4 3 2 5 9 11 12 13 13 14 14 13 14 13 14 21 21 19 19 18 22 23 18 16 16 18 18 18 19 19 20 21
12 12 12 12 11 11 10 8 6 4 2 1 1 2 4 6 8 9 9 9 9 9 9 9 10 9 9 8 8 8 9 7 7 9 8 8 8 8 7 7 7 7 7 6 6 6 6 6 6 5 4 4 5 4 4 4 3 3 3 6 7 8 10 12 13 13 13 12 12 12 14 19 20 18 18 16 18 20 19 17 17 17 18 19 20 20 22 22
12 12 12 11 11 10 9 7 5 3 2 1 3 4 5 6 7 8 9 9 8 9 9 10 9 9 8 8 7 8 9 6 7 8 7 7 6 6 6 6 6 6 5 5 5 5 5 5 5 5 4 3 3 2 3 3 1 1 4 6 8 9 9 10 12 12 11 10 10 12 15 17 18 17 17 16 16 18 19 20 19 19 19 19 21 22 23 23
12 11 11 10 10 8 7 5 3 2 2 3 4 6 6 6 7 7 7 8 8 9 9 9 8 8 8 8 7 9 10 6 6 7 6 6 6 6 6 6 6 5 5 6 6 6 6 6 5 5 4 4 4 3 3 3 3 1 5 8 8 8 8 9 10 10 11 12 14 15 16 18 17 18 18 17 18 18 20 21 21 21 20 20 21 22 23 24
11 10 10 9 8 6 5 3 2 1 1 2 3 4 5 5 6 6 7 8 8 8 8 8 8 8 9 8 8 10 8 6 6 6 6 7 7 7 7 6 5 5 6 6 7 7 6 6 5 5 5 4 4 4 3 3 3 2 5 6 6 7 8 9 10 11 14 15 16 17 18 18 17 18 19 19 20 20 21 21 22 22 22 22 22 23 24 26
10 9 9 8 7 6 5 3 2 1 1 1 2 2 3 4 5 6 7 7 8 9 10 10 8 8 8 7 8 8 5 6 7 6 6 7 7 7 6 5 4 5 6 6 7 8 7 7 6 5 6 5 4 5 4 3 3 5 6 7 7 8 9 9 10 13 15 15 16 17 17 18 18 18 20 21 22 22 23 23 23 23 23 23 24 25 26 27
9 9 9 8 8 6 5 4 3 3 3 3 3 3 3 5 6 6 7 7 8 10 9 8 8 8 8 7 6 6 5 7 7 7 7 7 7 7 6 5 4 5 7 7 8 8 8 9 9 8 7 6 6 7 7 5 4 7 9 9 8 9 11 10 9 12 13 14 18 18 17 18 19 19 21 23 24 24 25 24 24 24 24 25 25 26 27 28
10 10 10 9 8 7 6 5 5 5 4 4 4 4 5 5 6 6 7 8 9 10 9 8 8 8 8 6 3 4 6 7 8 8 7 6 7 7 6 6 5 6 7 7 8 8 9 11 12 11 9 7 7 8 10 7 5 7 10 9 8 9 12 13 9 10 13 16 20 21 20 20 18 20 23 24 24 26 26 26 26 26 26 27 27 28 29 29
11 11 11 10 9 8 7 7 6 6 5 5 5 6 6 6 7 8 8 9 10 10 9 8 8 8 7 3 2 6 7 8 9 8 7 7 7 7 7 6 6 7 7 8 9 10 10 11 13 13 11 9 6 8 11 11 6 3 7 11 11 11 12 15 13 9 13 19 21 23 21 20 20 20 22 24 26 27 27 27 27 28 29 29 30 30 30 31
12 12 11 11 10 10 9 7 7 6 6 6 7 7 8 8 8 9 9 10 10 10 9 9 9 8 5 2 5 8 8 8 8 8 8 9 8 9 9 8 8 8 9 10 11 11 12 13 13 12 13 11 8 7 9 12 11 5 6 11 12 11 9 14 15 10 14 19 21 21 16 18 24 23 23 26 27 28 27 27 28 28 29 30 30 31 31 31
12 13 12 11 11 10 8 8 7 7 8 8 9 9 10 10 9 9 9 9 9 8 8 8 8 9 7 5 9 10 9 9 9 10 11 10 10 10 10 10 9 9 10 11 11 12 13 12 11 11 13 13 9 6 8 14 16 11 6 9 10 7 8 15 16 13 16 20 19 20 14 16 25 26 26 28 26 26 26 26 27 28 29 31 31 32 32 33
13 13 12 11 10 9 8 8 9 9 10 10 11 11 10 10 9 9 10 10 9 9 9 8 8 9 9 11 12 13 13 13 12 13 13 11 12 12 12 11 11 11 11 12 13 13 13 12 11 10 12 14 10 6 9 13 14 13 8 6 12 11 12 17 18 18 19 21 20 20 15 16 25 27 26 27 25 24 25 25 27 28 29 30 32 32 33 33
12 12 11 10 9 9 9 10 11 11 12 12 12 11 11 10 10 9 9 9 8 8 9 10 10 8 11 14 14 13 14 14 14 15 15 15 14 13 13 13 13 14 14 14 14 14 14 11 10 9 12 15 13 6 3 7 9 13 13 9 14 18 17 16 19 22 22 23 23 21 19 16 23 27 25 26 25 25 26 28 29 30 31 31 31 32 32 33
12 11 11 10 10 10 11 12 12 13 13 12 11 10 10 9 9 10 10 10 10 11 11 11 10 10 12 13 13 14 16 16 16 16 16 16 16 15 15 15 15 14 14 14 13 13 12 10 10 11 13 14 16 11 5 7 11 15 19 13 14 20 19 16 20 23 23 25 22 20 21 19 23 25 24 25 24 25 28 30 31 31 32 32 32 32 32 33
11 10 10 10 11 12 13 13 13 13 12 11 10 10 8 8 7 7 9 10 11 12 13 11 10 13 15 14 15 18 18 17 16 16 16 16 16 16 16 16 16 14 13 15 13 13 11 10 10 8 12 16 20 21 15 12 13 15 20 18 18 21 20 19 22 25 26 24 19 18 20 20 25 26 23 23 23 26 30 31 32 32 33 33 33 33 33 33
11 11 11 12 13 13 14 15 14 14 13 11 12 11 11 11 9 8 9 9 10 13 17 17 16 17 18 18 18 18 17 17 17 17 17 17 16 17 17 16 15 13 12 13 12 12 9 6 7 9 16 21 22 23 19 14 13 14 19 21 22 19 18 21 22 26 28 23 18 19 21 21 25 26 22 20 22 26 29 30 32 33 34 35 35 35 35 35
12 12 12 13 13 14 16 16 16 16 15 14 14 13 14 14 12 11 10 10 15 20 21 22 22 21 18 17 17 16 16 17 18 18 17 17 16 16 17 15 13 11 10 10 10 11 9 8 14 18 18 20 19 19 17 15 13 15 19 21 21 16 20 23 21 26 27 23 22 21 23 23 23 25 22 20 21 25 28 29 31 33 34 36 37 38 37 37
12 12 13 14 14 16 17 17 17 17 16 16 15 14 15 15 14 14 11 14 21 21 20 19 19 20 18 17 17 15 15 17 17 16 16 16 15 14 14 12 9 9 8 9 10 10 11 16 21 20 16 17 17 17 17 15 13 16 19 17 16 17 25 26 22 28 26 23 26 21 23 26 23 24 21 19 22 24 26 27 30 32 33 36 38 39 39 38
13 14 15 16 17 18 18 18 18 18 18 18 16 15 16 16 17 15 15 21 24 21 19 18 16 16 16 16 16 14 14 14 13 14 14 14 13 12 12 10 7 7 8 9 9 10 15 21 20 16 16 16 15 17 18 17 14 13 16 16 16 21 30 29 26 30 27 25 26 20 24 28 23 23 21 19 23 23 25 27 29 31 33 36 38 38 39 39
14 16 17 18 19 20 19 19 19 18 18 17 15 14 14 15 17 16 17 21 22 21 21 20 18 16 15 13 14 14 14 13 11 13 13 13 13 12 11 9 5 5 7 10 11 12 17 18 17 16 15 15 16 19 20 20 13 8 13 20 22 27 29 28 29 31 26 24 22 19 28 28 19 21 23 21 22 23 25 27 29 31 33 35 37 37 39 40
16 17 19 20 21 21 21 20 18 16 14 13 11 9 9 10 12 13 15 19 20 20 20 19 19 18 17 15 13 12 14 15 13 14 14 13 13 11 10 8 6 5 7 11 13 15 17 16 17 16 15 18 20 20 21 22 15 9 14 23 27 31 27 25 29 28 25 20 16 20 26 22 15 20 24 21 19 23 25 27 29 31 33 35 36 36 37 40
17 19 20 21 22 21 20 18 16 14 12 10 8 5 5 6 8 10 13 17 20 19 18 17 17 18 19 16 14 11 12 15 16 16 16 14 13 11 10 8 6 5 6 10 12 13 15 16 19 18 18 20 19 18 20 23 18 7 14 25 30 32 27 26 26 23 24 17 16 22 16 12 17 19 21 20 20 25 28 28 29 31 32 34 34 36 40 44
18 20 20 20 21 20 19 16 12 11 10 9 7 4 3 3 4 5 8 11 17 20 18 17 16 18 17 17 16 11 10 15 17 16 15 14 13 11 10 9 8 5 4 6 9 10 14 16 19 20 19 17 16 20 20 23 21 9 17 30 33 31 26 25 23 18 18 17 20 23 12 13 22 17 15 23 26 28 29 26 28 29 29 31 34 40 45 48
18 19 18 18 19 18 16 12 8 7 7 7 6 5 3 1 0 2 3 3 11 18 17 15 15 17 17 17 17 13 11 14 15 15 15 14 13 10 10 11 10 8 4 4 6 8 12 17 20 20 19 17 19 22 21 23 20 15 23 33 35 31 23 22 20 15 17 21 20 13 9 16 24 15 16 27 28 26 26 24 24 26 29 34 41 45 46 45
16 16 16 16 16 15 12 8 3 3 5 6 4 3 4 4 3 3 3 1 6 14 14 14 15 16 17 17 16 15 13 13 14 15 15 14 11 10 10 11 11 11 8 4 2 4 9 16 21 22 22 20 22 22 21 22 20 22 29 35 38 31 20 19 18 14 16 18 12 9 9 15 20 20 21 24 22 17 19 20 22 28 36 42 45 43 42 42
15 15 14 14 13 11 8 5 2 3 6 5 3 2 3 4 4 4 3 1 5 11 13 13 14 14 15 15 14 15 14 14 16 15 15 13 11 9 9 10 11 14 14 8 4 5 7 13 20 24 24 22 21 21 22 22 22 28 33 38 41 28 18 18 13 14 15 13 10 18 24 17 17 27 23 14 11 10 14 21 29 37 41 42 40 37 40 46
13 12 11 11 9 7 5 3 4 5 6 5 3 2 2 3 2 3 3 2 5 9 10 12 13 12 13 14 14 14 15 15 15 14 13 13 11 9 8 9 10 13 18 16 12 11 10 10 16 24 25 23 23 22 23 23 24 30 32 34 36 23 15 13 10 14 13 10 14 24 32 24 17 22 19 12 13 15 21 31 36 38 36 34 34 38 45 50
10 9 8 7 4 3 2 3 3 3 3 5 5 3 4 4 2 2 2 1 4 7 9 11 12 13 13 14 15 15 15 16 16 14 13 11 10 8 7 11 12 11 13 16 17 14 11 12 13 21 26 25 25 23 22 22 22 24 25 29 29 20 14 8 8 12 7 9 21 31 38 29 15 17 19 22 27 30 36 36 32 29 28 31 36 43 49 51
7 6 5 3 2 1 2 2 3 3 3 4 5 5 5 5 6 6 3 1 2 5 8 9 12 14 14 16 17 17 16 17 18 16 16 14 14 13 13 17 18 11 8 14 19 15 10 12 12 19 28 28 26 22 19 20 18 18 23 27 22 15 12 7 7 10 8 15 28 35 36 25 18 21 22 26 35 40 41 32 25 26 29 36 41 44 49 54
7 7 6 6 6 5 6 5 5 5 4 3 4 5 5 5 6 7 6 3 2 4 7 10 12 13 15 16 17 17 16 18 19 18 17 17 18 19 18 19 19 16 10 13 18 17 10 9 9 16 26 28 26 20 20 22 18 15 20 22 17 10 8 7 7 8 10 21 34 38 30 19 18 20 21 30 41 43 37 25 24 31 36 42 41 43 52 62
10 9 9 8 7 7 7 6 7 7 6 6 5 4 6 8 7 7 7 6 3 3 6 10 11 12 14 16 17 18 17 17 19 17 16 16 16 17 16 16 17 19 16 11 14 18 12 7 9 16 23 28 27 20 21 24 16 13 16 14 14 11 6 8 9 9 12 23 34 33 20 12 16 23 32 41 40 32 26 24 29 37 43 46 44 47 57 60
11 9 9 8 7 7 6 6 9 9 8 8 6 6 9 10 8 8 8 7 5 5 4 6 11 12 13 16 17 19 16 16 18 16 16 16 15 15 15 15 16 19 19 12 11 17 14 10 12 16 25 29 26 21 22 21 15 14 14 12 15 14 9 13 14 17 21 21 22 21 18 19 23 30 36 32 24 20 23 31 37 41 46 46 44 51 57 55
9 9 8 8 7 8 9 10 10 10 11 7 4 10 15 12 9 9 8 7 8 10 5 4 10 13 12 14 17 19 16 15 17 14 15 16 14 14 15 14 15 19 21 16 13 16 15 12 10 15 27 29 23 22 21 18 19 19 13 13 18 13 8 13 16 23 23 15 15 20 24 28 27 26 23 17 19 26 29 36 42 45 48 44 44 54 57 53
10 10 11 11 11 12 13 12 11 12 11 3 4 15 18 13 11 10 8 8 7 11 10 6 9 13 14 14 16 18 15 14 15 11 11 13 12 13 14 14 14 18 21 18 16 17 18 15 8 12 27 29 22 23 20 17 23 22 12 15 20 11 5 10 13 17 15 10 15 21 25 29 25 20 20 22 29 33 34 42 49 50 46 40 45 55 54 51
13 14 15 16 17 17 15 13 14 14 8 3 11 19 16 13 12 10 8 9 7 10 12 10 10 12 14 15 15 18 15 13 14 12 9 11 11 11 14 14 12 15 20 19 18 20 20 14 7 13 28 27 20 21 18 17 24 24 16 15 18 10 6 13 13 12 12 10 13 18 23 26 22 22 27 29 32 36 40 50 54 50 43 42 49 54 51 51
13 13 14 17 19 20 18 16 17 11 4 9 17 18 14 13 12 10 9 9 8 10 12 12 12 13 14 15 15 18 17 13 14 13 10 10 11 11 13 13 12 13 17 19 21 24 21 10 8 19 30 23 15 16 16 17 21 23 18 13 15 12 8 15 15 12 14 14 12 17 20 18 19 28 32 27 32 42 51 58 56 46 43 48 53 54 52 53
13 14 16 18 19 22 22 18 12 7 8 17 19 16 14 13 11 11 10 10 10 11 12 12 13 14 15 16 15 17 18 14 13 13 12 12 12 11 12 13 12 12 15 19 22 26 22 9 12 26 31 19 14 18 19 18 17 18 16 12 15 15 12 15 14 12 16 14 12 14 15 21 26 30 29 30 39 51 56 59 54 45 47 53 54 53 54 54
15 17 19 18 20 22 16 9 9 13 17 20 18 16 15 12 11 12 10 11 11 11 12 13 14 15 15 16 16 17 17 14 12 12 13 14 13 11 12 14 13 12 16 19 22 26 22 12 17 29 28 19 20 24 21 19 21 21 15 11 13 15 15 14 10 15 21 18 18 16 15 30 36 28 29 37 47 57 59 55 49 46 50 55 54 53 55 55
16 19 20 18 20 19 9 6 14 19 19 19 17 16 14 12 12 12 11 12 11 11 12 13 15 16 15 16 16 16 17 14 11 12 14 15 14 12 13 15 14 13 16 18 22 26 22 18 21 24 21 20 24 24 19 22 30 27 16 15 17 17 20 15 10 22 29 25 30 27 20 33 38 29 35 47 54 59 54 46 44 48 54 58 58 58 58 53
19 22 21 19 20 17 10 13 19 18 17 18 17 15 14 13 12 12 12 12 11 12 12 14 16 16 16 17 16 16 18 14 10 12 15 15 15 13 13 14 14 14 16 18 22 25 19 17 22 23 21 23 24 24 23 28 34 27 16 20 24 24 27 24 21 29 30 24 28 23 16 32 41 38 44 53 57 55 45 41 47 53 59 61 58 59 58 52
22 23 22 20 19 16 15 18 19 16 17 18 16 15 14 13 12 12 12 13 12 12 13 15 16 16 16 17 16 17 17 14 11 13 16 16 15 13 13 14 14 14 16 18 22 24 18 15 20 21 19 20 22 22 26 33 34 26 19 21 26 29 30 29 29 30 24 22 28 20 18 39 50 48 52 55 53 46 40 45 55 59 64 63 57 58 56 50
20 22 22 21 18 15 17 19 17 16 17 16 16 16 14 13 13 12 12 13 13 13 13 15 16 16 16 17 17 17 17 15 13 13 17 17 14 13 13 13 14 13 15 18 21 24 21 16 16 14 11 11 13 16 23 30 30 26 23 22 25 29 28 27 29 27 23 28 32 23 28 51 62 56 56 54 48 43 43 50 58 58 59 63 61 58 52 48
17 18 18 19 17 16 18 19 18 17 17 16 16 17 15 14 13 12 12 13 13 14 14 15 16 17 17 17 17 17 18 17 15 15 18 17 13 14 13 13 14 13 14 18 20 24 25 16 11 17 17 13 16 21 25 26 26 26 26 24 24 25 25 26 25 24 28 33 34 32 37 56 66 61 57 51 45 45 49 54 59 56 57 65 65 56 52 53
17 17 15 15 15 16 18 19 18 17 17 16 16 16 15 15 13 12 13 13 14 15 15 15 17 17 17 17 17 17 18 18 16 17 19 17 14 15 14 14 14 13 14 18 20 25 26 14 12 25 26 17 20 29 28 21 23 25 26 24 23 23 25 24 20 23 29 30 35 47 53 56 63 62 54 47 46 50 54 56 58 59 63 70 65 55 56 58
17 17 16 15 14 15 17 17 17 17 17 17 16 16 16 15 14 13 13 14 15 16 16 16 17 17 16 16 16 17 17 17 17 17 18 16 14 14 14 13 13 12 15 17 20 26 25 16 20 31 30 22 24 32 30 21 21 22 23 21 22 24 24 21 20 24 28 28 39 56 59 56 60 58 49 45 50 56 57 55 56 61 68 70 64 59 61 62
17 17 16 16 15 16 16 16 16 17 16 16 16 16 16 15 15 14 14 15 16 16 17 17 18 18 17 16 16 17 17 17 17 17 17 15 13 13 13 12 11 13 15 17 22 26 24 22 27 33 33 27 23 31 31 21 19 19 17 16 20 26 23 19 27 35 35 37 45 51 56 56 52 48 47 48 51 53 53 53 58 65 70 70 66 65 64 64
17 17 16 15 15 16 15 15 16 16 15 15 15 15 15 15 15 15 15 15 16 17 18 18 18 19 18 16 17 17 17 18 17 17 16 14 13 13 11 11 12 13 14 17 22 26 26 28 31 35 35 27 25 37 33 16 15 15 11 14 24 32 28 25 36 47 46 48 50 49 53 52 41 41 51 52 49 50 51 54 63 70 69 68 68 69 67 67
16 16 16 15 15 15 15 15 15 14 14 14 15 15 15 15 16 16 15 16 17 17 18 19 19 19 18 17 18 18 18 18 17 17 16 13 13 12 10 11 12 12 15 19 23 27 30 31 34 35 30 23 30 44 34 13 10 7 6 18 29 33 35 36 43 49 48 50 54 52 49 46 43 49 57 54 51 52 53 56 65 68 65 65 68 68 70 73
16 16 16 15 15 15 15 15 14 13 13 14 14 15 15 15 16 16 16 16 18 18 18 19 20 20 19 18 18 19 19 19 17 17 15 13 13 11 10 12 12 12 16 20 24 29 31 33 34 31 26 26 37 43 29 11 6 3 8 23 28 28 38 46 50 51 47 45 48 47 44 44 51 59 60 57 54 51 51 58 63 62 59 61 64 65 68 71
Wind_Direction
163 162 159 159 157 154 144 135 133 135 142 139 9 354 358 351 353 352 348 352 0 3 3 1 359 356 354 355 356 354 352 351 349 347 353 357 351 345 339 338 340 344 346 347 352 352 349 345 342 330 325 328 321 317 315 316 320 330 320 286 290 293 276 274 282 290 291 294 301 306 310 308 299 297 306 305 290 288 293 295 291 289 288 289 290 292 296 299
169 166 164 162 159 155 147 144 145 147 149 144 173 232 332 347 357 353 350 353 357 359 358 357 355 355 354 353 354 351 348 350 350 351 353 350 343 338 337 338 342 345 345 344 343 343 341 336 332 324 322 316 310 314 310 313 325 321 280 282 289 273 274 280 288 298 301 303 307 311 309 300 296 299 305 293 285 292 295 291 286 284 284 287 291 292 294 298
173 170 168 166 165 161 153 151 152 150 145 145 171 248 324 344 347 342 347 353 354 354 350 351 353 356 357 355 354 350 347 349 348 344 338 332 335 341 345 347 347 346 344 341 340 339 338 336 330 327 324 302 304 315 310 316 322 314 295 288 268 266 284 298 303 306 307 310 312 313 306 297 299 304 305 294 291 294 289 282 277 274 277 280 283 287 290 293
172 171 171 172 171 166 159 158 157 150 142 140 145 333 336 335 332 333 345 353 351 346 345 350 354 358 0 356 352 351 353 351 350 350 342 337 343 348 348 350 350 346 345 343 343 344 342 340 332 330 331 307 314 321 314 319 302 283 250 246 260 274 295 312 316 313 316 320 317 314 302 297 304 306 301 295 292 293 286 277 272 272 276 281 285 289 293 296
169 171 173 173 171 166 164 163 162 157 152 126 18 336 331 324 324 334 344 349 346 343 348 354 357 360 1 359 359 1 1 358 1 1 358 357 355 353 354 358 359 356 357 356 356 357 350 347 345 351 352 326 331 329 320 327 298 283 266 258 288 309 314 320 322 319 323 326 320 311 296 297 307 307 300 294 288 286 285 281 278 280 284 289 294 297 300 302
167 169 169 168 165 164 167 170 174 184 203 260 306 314 322 322 330 340 343 342 341 347 355 358 360 360 3 7 7 12 16 13 9 9 10 10 7 8 13 18 23 20 22 20 16 12 7 12 15 17 19 4 10 352 332 358 60 282 294 307 330 338 336 332 328 326 334 339 333 321 309 312 316 308 302 297 289 284 286 288 289 291 293 294 296 298 301 303
165 164 161 159 158 161 168 173 180 196 237 270 291 308 323 332 340 343 341 345 351 357 359 2 6 7 19 22 21 30 34 30 24 28 28 28 30 31 36 41 44 46 45 37 29 22 19 28 31 33 39 22 11 12 17 49 86 177 294 320 336 351 357 345 337 343 350 347 344 339 326 325 323 311 305 299 292 289 288 291 293 293 294 294 294 296 297 298
162 156 152 149 147 150 152 146 140 157 267 281 297 313 331 341 345 347 351 357 359 1 6 17 22 29 37 37 40 42 37 40 47 48 44 44 46 45 50 51 54 58 47 37 26 21 20 28 32 42 47 22 3 23 45 49 33 352 329 342 359 14 13 1 357 356 356 352 346 340 326 319 316 307 300 296 292 290 289 289 291 290 291 292 292 293 294 294
152 144 140 133 128 124 118 113 108 90 33 9 358 348 354 355 358 3 5 9 13 21 26 31 37 47 55 53 56 54 46 56 57 52 51 51 49 50 50 49 55 50 39 28 21 24 28 32 35 46 48 35 39 50 42 31 23 26 36 43 41 32 26 21 13 1 357 354 344 333 316 305 305 301 295 293 290 289 290 288 289 289 289 291 291 291 291 291
138 131 123 115 112 109 106 101 83 70 63 59 51 38 26 17 17 15 19 28 36 43 45 52 63 70 74 68 68 72 61 59 57 48 46 49 49 45 34 31 35 33 32 26 23 29 37 42 44 47 47 52 71 65 48 53 76 64 57 53 45 38 34 27 7 354 349 345 344 337 316 300 297 295 290 291 291 290 291 289 289 290 289 290 290 289 288 288
125 117 110 106 107 104 99 89 79 77 73 72 63 48 38 32 32 35 43 52 58 62 64 73 80 75 67 62 78 88 66 58 56 46 39 41 42 32 22 21 23 31 34 27 28 36 45 49 46 45 48 62 80 66 51 57 83 72 54 39 29 31 29 17 360 343 342 344 344 339 325 308 293 286 288 291 291 292 292 292 292 292 290 290 289 288 287 287
113 108 105 103 102 97 93 86 82 83 77 71 61 52 52 52 56 62 67 73 75 74 71 71 75 68 57 62 101 73 58 51 46 36 32 37 35 25 20 25 34 40 37 33 36 37 44 48 43 44 49 57 69 56 44 43 52 50 32 29 9 3 14 6 357 349 346 348 342 338 328 309 297 290 290 294 294 295 295 295 295 293 291 289 288 287 285 285
108 104 101 98 96 93 91 88 85 80 72 67 64 67 68 71 78 82 85 85 81 79 75 69 66 61 53 72 70 58 51 44 35 27 32 36 34 30 31 39 45 46 42 40 39 35 40 44 38 37 43 44 44 47 42 37 41 17 12 31 4 342 349 348 352 356 347 346 338 335 325 296 297 297 296 300 299 299 299 299 299 296 293 289 286 285 284 284
105 100 96 95 96 96 94 90 83 75 72 73 78 82 83 87 91 91 90 86 82 76 70 64 58 50 47 57 55 53 50 45 44 40 40 39 38 41 45 47 47 47 44 39 37 35 38 40 29 23 31 32 31 49 42 32 37 34 33 33 12 343 324 337 351 355 341 338 335 333 321 286 293 301 304 307 305 302 300 300 299 295 292 288 285 284 284 284
103 98 98 98 99 99 95 87 81 79 82 85 90 95 97 98 95 92 90 83 78 69 60 54 54 50 54 56 47 46 47 46 51 49 47 48 48 49 48 46 43 40 35 29 27 23 25 25 12 11 24 26 28 48 36 26 27 30 33 4 4 2 343 344 347 346 339 337 337 332 323 292 298 311 314 313 311 306 303 302 301 297 293 289 286 284 283 284
104 102 103 104 104 99 91 87 86 89 92 94 98 101 101 98 95 92 89 84 72 60 55 51 53 59 61 57 49 51 53 51 53 51 49 50 49 45 39 35 30 29 26 19 16 15 15 9 358 9 27 30 36 59 59 25 15 15 21 356 350 355 350 345 339 343 343 337 336 330 325 309 306 317 318 316 315 310 307 306 305 301 296 292 288 286 283 282
109 111 111 110 105 96 92 94 96 98 99 99 99 97 95 92 88 86 88 86 68 56 59 57 59 68 68 66 62 59 54 50 50 47 45 43 40 33 28 24 19 20 16 9 10 10 8 6 14 31 36 37 40 54 70 19 4 3 10 358 344 350 351 343 336 343 341 333 333 329 326 316 308 316 317 317 316 309 308 306 306 304 299 295 289 286 283 282
116 116 111 105 99 97 100 102 103 102 100 99 94 87 83 79 79 91 94 80 63 61 64 64 71 71 66 63 58 51 47 45 43 40 37 33 30 24 20 18 13 9 4 9 12 6 7 22 37 42 31 31 32 37 41 18 4 360 1 355 348 350 351 344 335 339 338 331 333 329 327 315 308 316 317 318 316 309 309 307 308 306 301 296 291 287 284 281
120 113 104 101 102 106 109 107 105 100 96 91 84 78 68 65 65 83 99 85 73 74 67 59 61 64 58 51 48 45 39 37 34 33 31 25 22 17 16 16 6 1 4 13 15 10 18 30 31 27 24 28 27 28 29 17 8 360 358 358 355 344 336 337 331 335 337 332 336 329 323 315 306 312 314 316 318 312 311 310 308 305 301 299 295 291 288 285
116 109 106 109 112 116 115 111 107 100 94 84 77 73 69 68 65 77 103 99 75 70 65 57 55 58 56 47 43 37 26 25 28 29 27 22 19 12 13 10 359 1 7 12 22 27 32 40 39 37 30 29 25 22 19 14 8 2 2 359 352 334 325 334 332 337 339 329 334 330 317 318 308 307 310 309 314 313 313 312 307 304 301 299 296 293 291 288
116 115 115 118 120 121 118 114 108 101 96 87 79 77 78 81 78 83 101 88 69 63 63 59 57 58 56 50 43 29 18 23 26 24 24 23 18 10 10 5 354 3 7 17 34 32 33 45 44 37 30 24 18 18 16 11 6 7 8 351 338 330 330 339 336 336 339 325 331 329 312 318 310 306 314 307 306 309 311 310 305 303 300 297 295 292 290 289
122 122 123 125 125 123 117 113 108 103 99 93 88 84 83 83 80 81 83 77 69 63 61 57 54 54 51 49 44 32 23 26 24 19 23 22 14 12 9 360 355 9 17 36 44 31 36 44 40 29 25 19 12 17 14 7 4 4 6 348 334 337 336 343 338 330 332 322 326 326 311 317 305 302 322 314 304 307 309 309 304 301 298 294 292 290 291 292
127 128 128 129 127 122 117 112 107 102 98 95 94 87 81 80 77 75 73 73 69 62 59 53 49 48 42 39 38 31 22 20 17 17 25 21 14 16 9 1 6 13 28 49 55 49 47 43 31 24 21 14 13 17 12 9 2 327 347 349 340 342 338 336 332 326 326 318 316 318 314 318 301 295 318 315 305 308 307 307 304 299 297 294 292 291 293 295
130 131 133 132 129 125 120 114 107 100 93 88 90 88 84 82 78 72 65 65 60 54 54 48 44 43 38 31 28 23 16 16 17 19 25 21 17 16 11 13 18 18 31 41 49 51 50 41 26 21 14 15 17 11 6 12 6 297 328 348 342 342 336 328 327 324 328 322 309 315 314 313 303 303 312 307 303 307 305 303 301 298 296 294 293 293 296 299
133 136 138 137 135 131 124 117 107 94 83 76 77 88 104 98 89 75 61 57 48 42 45 39 34 37 34 29 25 15 9 15 18 20 22 20 20 18 18 23 20 21 29 36 48 47 42 35 22 18 15 16 14 2 0 7 7 322 325 345 345 342 336 334 333 323 326 326 312 315 310 306 312 305 301 305 310 308 304 301 297 295 294 294 296 297 300 303
137 141 142 143 143 138 131 123 106 82 67 63 64 85 123 136 114 69 50 50 35 31 36 29 25 28 26 27 26 14 6 12 16 19 17 16 21 21 25 29 29 32 17 28 49 41 33 29 20 20 20 15 7 1 1 1 1 345 331 344 349 345 337 335 331 315 315 319 318 312 284 297 312 298 290 309 314 304 298 296 292 295 297 299 303 304 306 307
140 144 146 151 152 147 143 134 105 67 48 49 55 68 67 34 204 354 7 34 19 21 29 26 26 25 22 25 24 21 19 10 10 18 17 16 19 25 33 35 37 41 25 30 41 26 26 26 19 19 19 13 6 2 359 357 355 341 337 345 349 345 336 329 320 308 308 311 321 318 259 290 306 306 307 307 305 296 291 292 294 302 307 308 309 307 308 310
141 146 150 157 159 157 157 151 120 36 15 19 31 47 48 39 42 32 30 32 7 15 21 22 25 23 21 22 19 23 27 14 11 18 18 18 18 26 37 39 42 43 44 60 34 357 15 20 16 14 13 10 5 359 353 354 351 341 342 347 350 347 335 326 311 298 309 304 313 355 333 300 297 309 312 302 298 287 281 292 302 310 311 308 307 305 307 310
143 147 152 158 163 168 171 176 224 320 341 351 9 28 42 39 39 52 63 53 8 15 18 18 19 20 20 19 18 22 22 17 19 19 15 19 21 24 35 38 43 44 43 44 4 336 351 8 11 8 9 6 359 355 353 354 348 344 347 348 349 346 326 323 301 282 299 289 301 342 340 325 303 308 307 296 293 266 269 297 307 308 306 303 302 304 309 313
140 145 149 155 163 174 187 224 285 316 336 350 5 20 47 47 37 55 64 52 26 21 20 19 18 20 18 16 17 19 18 16 20 19 18 25 26 23 29 26 26 31 30 24 7 349 329 331 355 1 4 1 355 354 355 353 347 347 350 345 343 342 318 305 285 289 295 291 318 334 333 328 309 308 310 299 295 288 293 302 303 302 300 300 302 306 312 316
140 146 150 160 170 188 239 286 313 339 12 29 44 75 80 69 65 75 77 55 34 21 16 15 14 15 14 14 17 15 13 12 14 17 18 24 20 10 16 19 20 24 19 13 6 357 327 306 328 351 356 356 356 355 352 351 348 346 348 343 342 344 331 298 292 317 312 307 323 327 327 323 302 308 312 299 301 306 307 305 304 306 309 316 319 321 322 322
140 140 142 140 116 97 45 45 40 46 64 53 59 82 89 72 60 65 85 112 18 14 10 10 11 13 12 13 15 11 9 9 11 13 14 19 20 21 29 28 29 30 7 360 3 359 331 300 305 339 351 356 357 354 353 353 349 343 348 351 349 345 343 338 326 336 322 307 316 321 323 315 296 306 307 302 309 312 310 309 311 316 326 333 332 332 328 318
107 101 98 91 80 76 72 68 62 62 71 63 72 87 89 79 64 62 75 82 47 20 15 12 8 10 11 11 12 8 7 9 10 12 14 18 24 30 33 30 30 27 8 355 359 359 339 298 304 336 347 353 355 354 352 352 351 348 351 358 359 346 338 335 323 329 316 305 310 315 313 300 297 308 308 308 310 307 305 310 320 324 328 328 325 324 321 316
93 90 86 82 77 77 75 70 68 68 71 69 74 93 91 81 81 83 76 67 51 2 3 14 10 7 10 11 10 5 5 8 7 9 12 15 23 29 26 23 24 21 16 7 359 359 346 301 309 336 344 349 353 354 351 352 357 352 350 357 357 349 324 311 316 318 307 302 307 310 306 297 311 313 306 305 304 302 301 305 318 324 322 320 318 320 323 323
92 90 88 84 79 74 70 73 71 66 71 74 68 85 97 92 93 96 78 59 46 11 339 3 12 11 9 8 8 6 5 4 2 5 8 11 20 23 18 17 16 16 19 16 358 359 351 312 305 333 348 349 350 352 351 356 2 350 348 349 343 336 297 283 294 301 301 298 303 308 300 300 309 306 302 302 303 303 301 305 315 322 321 320 320 322 324 326
95 95 90 79 77 75 67 71 72 69 75 82 69 79 93 101 99 94 76 61 48 32 23 1 6 14 11 3 5 5 2 1 3 5 5 4 13 16 12 12 10 13 18 14 2 0 351 331 318 337 349 350 349 353 354 355 355 350 349 340 339 338 296 287 295 303 305 295 297 305 301 304 311 308 308 313 314 311 312 317 324 326 324 324 324 325 326 325
92 87 82 76 78 77 70 70 68 66 67 69 88 85 91 97 90 85 71 58 47 36 39 28 5 11 11 4 3 3 1 2 4 6 0 356 1 4 4 7 7 11 15 12 6 358 343 336 338 342 346 348 351 356 357 351 348 350 345 339 350 360 316 317 315 309 311 296 296 303 302 306 312 315 320 317 313 317 323 327 328 326 325 324 324 326 326 325
83 82 82 80 79 75 73 73 64 60 57 69 88 87 89 89 81 78 66 54 47 36 37 34 16 9 9 6 360 1 4 0 359 4 0 352 350 349 355 2 3 6 9 7 5 360 346 334 330 342 346 349 352 359 359 343 341 348 347 344 357 2 317 328 326 306 309 304 300 306 305 305 309 319 324 317 316 325 328 329 329 327 327 327 325 326 326 326
79 85 86 81 80 74 67 62 56 52 60 77 84 87 86 84 77 70 60 49 42 36 33 29 18 10 8 5 358 359 2 357 356 4 0 349 345 342 348 354 356 360 4 5 5 1 354 335 300 338 353 355 350 353 352 338 338 347 349 342 345 346 322 322 316 291 302 309 307 312 310 305 313 322 322 318 323 329 328 328 328 327 328 328 326 326 326 326
82 88 85 77 75 69 60 58 58 60 72 73 80 87 83 80 72 62 55 45 40 36 32 23 14 10 6 2 360 359 359 354 352 357 355 351 348 342 343 347 348 351 354 359 2 359 358 338 296 333 355 1 341 340 342 341 340 338 336 330 334 344 336 320 307 289 303 310 306 315 307 296 310 324 324 321 324 326 327 327 326 326 327 327 326 326 326 326
84 84 80 73 71 69 65 71 71 63 68 72 77 79 76 73 66 59 50 41 38 34 27 19 11 10 4 0 360 357 355 353 348 348 349 350 347 340 339 340 339 343 349 357 2 359 357 343 319 332 345 343 335 340 342 344 345 337 329 325 332 346 344 332 318 308 311 303 295 304 296 292 305 325 326 322 322 323 325 325 324 326 326 326 326 326 325 326
83 79 77 72 70 70 70 79 67 62 67 73 73 71 71 67 60 54 45 39 36 29 23 15 9 8 3 360 358 355 353 350 345 345 345 343 342 337 335 339 338 339 346 356 2 359 354 348 337 331 331 332 337 344 344 344 348 346 341 332 331 340 339 332 312 308 309 300 294 297 287 289 304 324 325 322 322 322 324 325 324 325 325 325 326 327 328 328
82 77 75 71 71 72 69 69 68 66 68 69 69 68 65 61 55 49 43 37 30 24 17 11 8 5 1 358 356 354 354 351 342 341 341 340 340 336 335 340 339 336 343 353 358 359 360 356 343 332 334 341 344 348 346 343 345 345 336 326 323 322 322 317 308 305 302 295 301 304 286 290 307 323 324 323 323 323 324 326 325 325 326 327 327 328 329 328
79 78 75 70 70 73 69 68 67 64 65 66 66 63 59 55 50 45 40 33 27 22 13 8 6 2 358 357 354 354 354 352 343 337 338 338 336 334 336 340 338 335 343 352 356 359 3 1 351 342 341 347 348 349 345 338 335 330 320 315 313 312 313 313 315 312 297 293 309 311 286 295 309 321 324 324 325 325 325 325 326 327 328 329 328 327 327 325
73 76 75 71 68 66 66 66 63 60 60 61 60 57 52 49 44 40 35 28 23 18 11 6 4 360 357 355 352 352 351 350 343 335 337 338 334 334 337 338 337 333 338 347 352 355 356 1 5 357 339 334 332 331 331 326 319 316 316 314 310 309 310 315 318 312 302 306 309 297 288 301 311 320 324 327 327 326 327 326 327 327 327 327 328 327 327 325
68 71 72 72 67 59 61 63 59 55 53 51 52 50 45 42 39 34 29 23 18 14 9 4 2 359 356 353 350 349 347 346 342 335 337 337 332 334 336 335 336 329 332 341 344 349 353 357 2 352 339 317 306 319 328 319 306 307 312 315 315 311 309 317 316 305 308 312 304 296 301 308 313 320 327 329 329 328 328 328 329 328 326 327 328 326 326 326
67 66 65 68 64 55 55 57 55 52 48 44 45 44 40 37 33 29 24 18 13 9 4 2 1 358 354 351 349 347 344 341 338 336 337 335 330 332 331 331 333 326 328 337 340 347 353 350 338 345 346 334 327 338 340 317 298 303 305 311 322 318 313 317 310 303 314 314 304 308 314 313 314 321 328 331 330 329 328 328 329 328 328 329 328 326 328 329
62 62 59 60 61 56 52 52 50 48 44 39 38 38 36 32 29 25 19 14 9 5 1 360 359 356 353 350 347 345 341 339 338 336 335 333 328 327 326 327 329 324 327 336 341 346 353 350 340 343 348 349 348 350 344 315 297 303 301 306 320 320 319 320 309 309 317 310 303 310 315 314 315 321 327 330 328 327 327 327 326 327 329 331 329 329 331 331
54 55 53 52 52 51 48 46 45 45 41 36 34 34 32 28 25 20 15 10 5 1 359 356 355 354 352 348 346 344 342 340 339 337 334 331 326 322 323 325 325 324 328 335 340 346 352 350 343 344 349 356 354 350 344 323 308 313 303 303 321 324 324 321 316 320 320 310 306 310 313 313 316 321 325 327 326 325 326 327 326 328 331 332 332 333 332 329
47 47 47 44 42 43 43 41 40 39 37 33 31 31 29 24 20 15 10 6 3 360 357 353 353 352 350 347 345 344 343 341 338 335 333 330 324 321 319 321 323 321 326 334 339 347 352 350 347 347 350 357 353 350 352 337 310 312 290 301 327 329 325 325 325 326 324 317 314 315 314 315 318 322 323 325 326 326 327 327 329 331 333 333 334 334 331 328
40 40 40 38 36 38 39 37 36 33 32 31 29 28 25 20 17 12 6 2 0 358 354 351 351 350 348 346 344 344 343 339 336 335 334 328 325 320 314 320 321 315 323 334 340 347 351 350 352 352 348 348 350 352 358 351 309 303 283 316 330 327 323 327 328 326 324 320 320 320 320 321 324 324 323 326 328 328 328 328 329 331 333 335 334 330 329 330
34 33 34 33 31 34 35 34 32 29 28 28 25 23 21 16 13 9 4 360 357 356 353 351 350 350 347 344 343 344 342 338 336 335 334 331 326 317 312 321 319 313 324 335 341 349 352 352 356 356 344 341 351 354 357 350 323 333 320 319 321 322 324 326 326 326 327 324 321 321 322 324 324 325 326 327 328 329 327 326 329 331 333 334 333 329 328 330
Height
3122 3123 3124 3125 3125 3126 3126 3126 3127 3127 3127 3128 3128 3128 3128 3128 3128 3127 3127 3126 3126 3125 3125 3124 3124 3123 3122 3121 3121 3120 3120 3119 3119 3118 3117 3117 3116 3116 3116 3115 3114 3114 3114 3113 3113 3113 3112 3112 3111 3111 3110 3110 3110 3110 3110 3110 3110 3110 3110 3111 3111 3109 3108 3106 3105 3105 3104 3104 3102 3100 3098 3096 3094 3093 3094 3092 3087 3087 3086 3084 3082 3080 3078 3077 3076 3075 3074 3074
3123 3123 3124 3125 3126 3126 3126 3127 3127 3127 3128 3128 3128 3128 3128 3128 3128 3128 3127 3126 3126 3125 3125 3124 3124 3123 3122 3121 3121 3120 3120 3119 3118 3118 3117 3117 3116 3116 3116 3115 3114 3114 3113 3113 3112 3112 3112 3111 3111 3110 3110 3110 3110 3110 3109 3109 3109 3109 3110 3111 3109 3107 3106 3105 3104 3103 3102 3102 3100 3098 3096 3092 3092 3092 3093 3091 3086 3085 3086 3083 3081 3079 3078 3077 3076 3075 3074 3073
3123 3124 3125 3126 3126 3126 3126 3127 3127 3128 3128 3128 3128 3128 3129 3128 3128 3127 3127 3127 3126 3126 3125 3124 3124 3123 3122 3121 3121 3120 3120 3119 3118 3118 3117 3117 3117 3116 3115 3115 3114 3113 3113 3112 3112 3111 3111 3110 3110 3110 3109 3109 3109 3109 3109 3108 3108 3108 3109 3109 3107 3105 3105 3104 3103 3102 3101 3100 3098 3097 3094 3090 3090 3091 3091 3089 3085 3084 3085 3082 3081 3079 3077 3076 3075 3074 3073 3072
3123 3124 3125 3126 3126 3126 3127 3127 3128 3128 3128 3128 3129 3129 3129 3129 3128 3128 3127 3127 3126 3126 3125 3124 3124 3123 3122 3121 3121 3120 3119 3119 3118 3118 3117 3117 3116 3116 3115 3114 3113 3113 3112 3111 3111 3110 3110 3110 3109 3109 3109 3109 3109 3108 3108 3107 3107 3107 3107 3107 3105 3105 3104 3103 3101 3100 3099 3098 3097 3096 3092 3088 3089 3089 3088 3087 3084 3082 3082 3082 3080 3078 3077 3075 3074 3073 3072 3071
3124 3125 3125 3126 3126 3127 3127 3128 3128 3128 3129 3129 3129 3129 3129 3128 3128 3128 3127 3127 3126 3126 3125 3124 3123 3122 3122 3121 3121 3120 3119 3119 3119 3118 3118 3117 3116 3115 3114 3114 3113 3112 3112 3111 3110 3110 3109 3109 3109 3109 3109 3109 3108 3108 3108 3107 3106 3106 3105 3105 3104 3104 3103 3101 3100 3098 3097 3096 3095 3094 3091 3088 3087 3087 3086 3086 3084 3082 3080 3080 3079 3077 3076 3074 3072 3071 3070 3069
3124 3125 3126 3126 3127 3127 3127 3128 3129 3129 3129 3129 3129 3129 3129 3129 3128 3128 3128 3127 3126 3126 3125 3124 3123 3122 3122 3121 3121 3121 3120 3119 3119 3118 3117 3117 3116 3115 3114 3113 3113 3112 3111 3111 3110 3109 3109 3109 3108 3108 3109 3109 3108 3108 3107 3106 3106 3105 3104 3104 3103 3103 3102 3100 3098 3097 3096 3095 3094 3092 3090 3088 3087 3086 3085 3084 3083 3081 3079 3078 3077 3075 3074 3072 3071 3069 3068 3067
3125 3125 3126 3126 3127 3127 3128 3129 3129 3129 3129 3129 3129 3129 3129 3129 3129 3128 3128 3127 3126 3125 3125 3124 3123 3123 3122 3122 3121 3121 3120 3120 3119 3118 3117 3117 3116 3115 3114 3113 3112 3112 3111 3111 3110 3110 3109 3109 3108 3108 3108 3108 3108 3107 3106 3105 3105 3105 3104 3103 3103 3102 3101 3099 3097 3096 3095 3094 3093 3091 3089 3088 3086 3085 3083 3082 3081 3080 3078 3076 3075 3073 3072 3070 3069 3068 3066 3065
3125 3126 3126 3127 3127 3128 3128 3129 3129 3130 3130 3130 3130 3130 3130 3129 3129 3128 3128 3127 3126 3125 3125 3124 3123 3123 3122 3122 3122 3121 3121 3120 3119 3118 3117 3116 3116 3115 3114 3114 3113 3112 3111 3111 3111 3110 3109 3109 3109 3108 3108 3108 3107 3106 3106 3105 3105 3104 3103 3103 3102 3102 3100 3099 3097 3095 3094 3092 3091 3090 3088 3087 3086 3084 3082 3081 3079 3078 3076 3075 3073 3072 3070 3069 3068 3067 3065 3064
3126 3126 3127 3127 3128 3128 3129 3129 3130 3130 3130 3130 3130 3130 3130 3130 3129 3128 3128 3127 3126 3125 3125 3124 3124 3123 3123 3123 3122 3121 3122 3121 3119 3119 3118 3117 3116 3115 3115 3114 3113 3113 3112 3112 3111 3110 3110 3109 3109 3108 3108 3108 3107 3106 3106 3105 3105 3104 3103 3102 3101 3101 3100 3098 3096 3095 3093 3092 3091 3090 3087 3085 3085 3083 3081 3079 3077 3076 3075 3073 3072 3070 3069 3068 3067 3065 3064 3063
3126 3127 3127 3128 3128 3129 3130 3130 3131 3131 3131 3131 3131 3131 3130 3130 3129 3128 3128 3127 3127 3126 3125 3125 3125 3124 3124 3123 3122 3122 3122 3121 3120 3119 3118 3118 3117 3116 3116 3115 3114 3113 3113 3112 3112 3111 3111 3110 3110 3109 3108 3108 3107 3107 3106 3105 3105 3104 3102 3102 3101 3100 3099 3098 3097 3095 3093 3092 3090 3089 3087 3085 3083 3082 3079 3077 3076 3075 3073 3072 3070 3069 3067 3066 3065 3064 3062 3061
3127 3127 3128 3128 3129 3130 3131 3131 3131 3131 3131 3131 3131 3131 3130 3130 3129 3129 3129 3128 3128 3127 3127 3126 3125 3125 3124 3123 3123 3123 3123 3122 3121 3120 3120 3119 3118 3117 3116 3116 3115 3114 3114 3113 3113 3113 3112 3111 3111 3110 3109 3108 3108 3107 3106 3105 3104 3103 3102 3101 3101 3100 3099 3098 3097 3095 3093 3091 3089 3087 3085 3083 3082 3081 3078 3076 3075 3074 3072 3070 3069 3067 3066 3064 3063 3062 3060 3059
3128 3128 3129 3129 3130 3131 3132 3132 3132 3132 3132 3132 3131 3131 3131 3130 3130 3130 3129 3129 3129 3128 3128 3127 3126 3125 3125 3125 3125 3124 3124 3123 3122 3121 3120 3120 3119 3118 3117 3116 3116 3115 3115 3115 3114 3114 3113 3112 3111 3110 3110 3109 3108 3107 3106 3105 3104 3103 3102 3101 3100 3099 3098 3098 3097 3095 3093 3090 3088 3086 3083 3080 3079 3078 3077 3075 3074 3073 3071 3069 3068 3066 3064 3063 3061 3059 3058 3056
3129 3129 3130 3131 3131 3132 3132 3133 3133 3133 3132 3132 3132 3132 3131 3131 3131 3130 3130 3130 3130 3129 3129 3128 3128 3127 3126 3126 3126 3125 3125 3124 3123 3122 3121 3120 3120 3119 3119 3118 3117 3117 3116 3116 3115 3114 3113 3112 3111 3111 3110 3109 3108 3107 3106 3105 3104 3103 3102 3102 3101 3099 3098 3097 3096 3094 3092 3090 3088 3086 3083 3079 3076 3076 3076 3075 3073 3071 3070 3068 3066 3065 3063 3061 3059 3057 3055 3053
3130 3131 3131 3132 3132 3133 3133 3133 3133 3133 3133 3133 3132 3132 3132 3132 3132 3131 3131 3131 3131 3130 3130 3129 3129 3128 3127 3127 3127 3126 3126 3125 3124 3123 3122 3122 3121 3120 3120 3119 3119 3118 3117 3116 3115 3114 3113 3112 3112 3111 3110 3109 3108 3108 3107 3105 3104 3103 3103 3102 3102 3101 3098 3096 3094 3093 3091 3090 3087 3085 3083 3079 3075 3075 3074 3072 3071 3069 3067 3066 3064 3062 3061 3059 3057 3054 3052 3050
3131 3132 3132 3133 3133 3134 3134 3134 3134 3134 3134 3133 3133 3133 3133 3133 3132 3132 3132 3132 3132 3131 3130 3130 3129 3129 3128 3128 3128 3127 3126 3126 3125 3124 3123 3123 3122 3121 3121 3120 3119 3118 3117 3117 3116 3114 3114 3113 3112 3111 3110 3109 3108 3107 3106 3105 3105 3104 3104 3103 3102 3100 3098 3094 3092 3091 3089 3088 3086 3083 3082 3078 3074 3073 3071 3069 3068 3067 3065 3064 3062 3060 3058 3057 3054 3052 3050 3048
3132 3133 3133 3134 3134 3135 3135 3135 3135 3135 3135 3134 3134 3134 3134 3134 3133 3133 3133 3133 3133 3132 3131 3130 3130 3130 3129 3129 3130 3129 3128 3128 3126 3125 3125 3124 3123 3122 3121 3120 3119 3118 3117 3117 3116 3115 3114 3113 3112 3111 3110 3109 3108 3107 3107 3108 3107 3105 3104 3103 3101 3098 3096 3094 3091 3090 3087 3085 3083 3081 3080 3077 3073 3070 3069 3067 3066 3065 3063 3061 3059 3058 3056 3054 3052 3050 3048 3046
3133 3134 3134 3135 3135 3136 3136 3136 3136 3136 3136 3135 3135 3135 3135 3135 3135 3135 3135 3134 3133 3133 3132 3132 3131 3131 3131 3132 3132 3131 3129 3129 3127 3127 3126 3125 3124 3123 3122 3121 3120 3119 3118 3117 3116 3115 3114 3113 3112 3111 3110 3109 3108 3106 3107 3108 3107 3104 3103 3102 3101 3098 3096 3094 3091 3088 3086 3084 3081 3079 3077 3075 3072 3069 3068 3066 3065 3063 3061 3059 3057 3055 3053 3051 3049 3047 3045 3043
3134 3135 3135 3136 3136 3137 3137 3137 3137 3137 3137 3137 3137 3137 3137 3136 3136 3136 3136 3135 3135 3134 3133 3134 3133 3132 3132 3133 3132 3131 3131 3130 3129 3128 3127 3126 3125 3124 3122 3121 3120 3119 3118 3117 3116 3115 3114 3113 3112 3111 3109 3108 3107 3106 3106 3108 3106 3104 3103 3102 3100 3097 3095 3094 3091 3088 3085 3083 3080 3078 3076 3073 3069 3068 3067 3065 3064 3062 3060 3057 3055 3053 3051 3048 3046 3044 3042 3040
3135 3136 3137 3137 3137 3138 3138 3138 3138 3138 3139 3139 3138 3138 3138 3137 3137 3137 3137 3137 3137 3135 3135 3135 3134 3133 3134 3134 3133 3133 3132 3131 3130 3129 3127 3126 3125 3124 3123 3121 3120 3120 3119 3118 3117 3116 3114 3113 3111 3110 3109 3108 3107 3107 3108 3108 3107 3106 3104 3102 3099 3096 3095 3094 3091 3087 3083 3080 3079 3076 3074 3073 3068 3065 3065 3064 3062 3060 3058 3056 3054 3051 3048 3046 3043 3041 3039 3036
3136 3137 3138 3138 3138 3139 3139 3139 3140 3140 3141 3140 3140 3140 3139 3139 3138 3138 3138 3139 3138 3136 3137 3137 3136 3135 3136 3136 3135 3135 3134 3132 3131 3129 3128 3127 3126 3124 3123 3122 3121 3120 3120 3119 3117 3116 3115 3112 3111 3111 3111 3111 3110 3109 3109 3108 3107 3105 3102 3100 3098 3096 3095 3092 3089 3086 3082 3079 3076 3074 3071 3070 3067 3064 3062 3061 3060 3058 3056 3054 3051 3049 3046 3043 3041 3038 3036 3033
3137 3138 3139 3139 3139 3140 3140 3141 3141 3142 3142 3142 3142 3142 3141 3141 3141 3141 3141 3140 3139 3139 3139 3139 3139 3138 3138 3138 3137 3136 3135 3133 3131 3130 3129 3128 3126 3125 3124 3123 3122 3121 3121 3119 3118 3117 3114 3111 3112 3114 3113 3112 3111 3110 3109 3107 3106 3103 3101 3099 3098 3096 3092 3088 3085 3083 3081 3077 3073 3071 3068 3066 3064 3061 3060 3058 3056 3055 3053 3051 3049 3046 3044 3041 3038 3035 3033 3030
3138 3139 3139 3140 3141 3142 3142 3143 3143 3143 3143 3143 3144 3144 3144 3143 3143 3143 3142 3140 3141 3141 3141 3141 3141 3140 3140 3139 3139 3138 3136 3134 3133 3132 3130 3129 3128 3126 3125 3124 3123 3122 3121 3119 3119 3117 3114 3113 3115 3115 3114 3113 3112 3109 3108 3106 3104 3101 3100 3099 3097 3094 3088 3083 3082 3080 3079 3075 3070 3068 3065 3062 3060 3057 3056 3055 3053 3052 3051 3049 3046 3044 3041 3038 3035 3032 3029 3027
3139 3140 3141 3142 3143 3143 3143 3144 3144 3144 3145 3145 3145 3146 3146 3145 3145 3145 3143 3142 3143 3143 3143 3143 3143 3142 3141 3141 3139 3139 3137 3136 3135 3133 3131 3129 3128 3126 3125 3124 3123 3122 3121 3120 3119 3117 3115 3116 3117 3115 3114 3113 3111 3109 3107 3105 3102 3101 3100 3098 3095 3092 3088 3083 3080 3078 3076 3073 3068 3066 3061 3058 3056 3054 3052 3052 3050 3049 3048 3045 3043 3041 3038 3035 3032 3029 3026 3024
3141 3141 3142 3143 3144 3144 3144 3145 3145 3146 3146 3146 3147 3147 3147 3147 3146 3146 3145 3144 3144 3145 3144 3144 3144 3143 3142 3141 3140 3139 3138 3136 3135 3133 3131 3130 3128 3127 3126 3124 3123 3122 3121 3120 3119 3118 3117 3118 3117 3116 3114 3112 3110 3108 3107 3104 3102 3101 3099 3097 3094 3091 3088 3084 3080 3076 3074 3071 3067 3065 3060 3054 3053 3051 3049 3049 3048 3046 3044 3042 3039 3037 3035 3032 3029 3027 3024 3021
3142 3143 3144 3144 3145 3145 3145 3146 3147 3148 3148 3148 3148 3148 3148 3148 3147 3147 3146 3145 3145 3146 3146 3146 3145 3144 3143 3142 3140 3139 3138 3137 3135 3133 3132 3130 3129 3128 3126 3125 3124 3123 3122 3121 3120 3119 3119 3118 3117 3115 3113 3111 3110 3109 3106 3104 3102 3101 3099 3097 3094 3089 3086 3083 3079 3075 3071 3068 3066 3064 3059 3053 3050 3048 3045 3045 3045 3043 3041 3039 3036 3034 3031 3029 3027 3024 3021 3018
3143 3144 3145 3145 3146 3146 3147 3148 3148 3149 3149 3149 3149 3148 3148 3148 3148 3148 3147 3146 3147 3147 3147 3146 3146 3145 3144 3143 3141 3140 3138 3137 3136 3134 3132 3131 3130 3128 3127 3126 3124 3123 3123 3121 3121 3120 3119 3118 3117 3115 3113 3112 3111 3108 3106 3103 3101 3101 3098 3095 3092 3088 3084 3081 3078 3076 3072 3068 3064 3062 3060 3053 3048 3046 3043 3042 3042 3039 3037 3035 3033 3031 3029 3027 3025 3021 3018 3014
3145 3145 3146 3146 3147 3148 3148 3149 3149 3150 3150 3150 3150 3149 3149 3149 3149 3148 3148 3148 3149 3149 3148 3148 3147 3146 3145 3143 3142 3141 3139 3138 3137 3135 3133 3131 3130 3129 3128 3126 3125 3124 3123 3122 3121 3121 3120 3118 3117 3115 3113 3112 3110 3107 3105 3103 3101 3099 3097 3093 3089 3086 3082 3079 3076 3075 3071 3067 3062 3059 3060 3054 3046 3045 3042 3040 3039 3036 3034 3033 3031 3029 3027 3025 3022 3018 3014 3010
3146 3147 3148 3148 3149 3149 3149 3150 3150 3150 3150 3150 3150 3150 3150 3150 3149 3149 3148 3150 3153 3152 3150 3149 3148 3147 3146 3144 3143 3142 3141 3139 3138 3136 3134 3132 3131 3130 3128 3127 3126 3125 3124 3123 3122 3121 3120 3118 3116 3115 3113 3111 3109 3107 3105 3103 3100 3098 3094 3090 3087 3083 3080 3077 3075 3072 3069 3067 3061 3058 3059 3053 3044 3043 3042 3038 3037 3035 3032 3031 3029 3027 3025 3022 3018 3014 3011 3008
3148 3149 3149 3150 3150 3151 3151 3151 3151 3151 3151 3151 3151 3150 3150 3150 3150 3149 3149 3152 3155 3153 3151 3151 3149 3148 3147 3146 3144 3143 3141 3140 3138 3136 3135 3133 3132 3131 3129 3128 3127 3125 3124 3123 3122 3121 3119 3117 3116 3114 3113 3111 3109 3107 3105 3102 3099 3096 3092 3087 3083 3079 3077 3074 3072 3070 3068 3065 3061 3058 3059 3053 3043 3041 3041 3037 3036 3035 3032 3030 3027 3024 3021 3018 3015 3011 3008 3005
3150 3150 3151 3151 3152 3152 3152 3152 3152 3152 3151 3151 3151 3151 3150 3150 3150 3150 3151 3154 3155 3154 3153 3152 3150 3150 3148 3147 3145 3143 3142 3140 3139 3137 3136 3134 3133 3131 3130 3129 3127 3125 3124 3123 3122 3120 3119 3117 3116 3114 3113 3111 3109 3106 3103 3101 3098 3094 3090 3085 3080 3077 3074 3072 3070 3069 3067 3062 3059 3058 3058 3054 3044 3038 3038 3037 3035 3035 3031 3028 3024 3021 3018 3014 3011 3008 3005 3001
3151 3152 3152 3152 3152 3152 3152 3152 3152 3152 3152 3151 3151 3151 3151 3151 3150 3150 3153 3156 3155 3155 3154 3153 3152 3150 3149 3147 3145 3143 3142 3140 3139 3138 3136 3135 3134 3132 3131 3129 3128 3126 3125 3124 3123 3121 3119 3117 3116 3115 3114 3111 3108 3105 3103 3100 3097 3094 3091 3086 3080 3075 3072 3071 3070 3069 3067 3061 3057 3056 3055 3052 3044 3037 3036 3035 3033 3032 3029 3024 3020 3016 3013 3010 3007 3005 3001 2997
3152 3152 3153 3153 3153 3153 3152 3152 3152 3152 3152 3152 3151 3151 3151 3151 3151 3153 3155 3156 3155 3155 3155 3154 3152 3150 3149 3147 3145 3144 3142 3141 3139 3138 3136 3135 3134 3133 3131 3130 3129 3128 3127 3126 3124 3121 3119 3117 3116 3115 3112 3110 3107 3104 3102 3099 3097 3095 3092 3087 3081 3075 3072 3071 3069 3068 3067 3061 3057 3056 3053 3048 3042 3037 3034 3033 3030 3028 3023 3019 3016 3013 3010 3007 3004 3001 2997 2992
3153 3153 3153 3153 3153 3153 3153 3153 3153 3153 3153 3152 3152 3152 3151 3152 3154 3156 3156 3156 3156 3156 3155 3154 3152 3151 3149 3147 3146 3144 3143 3141 3140 3138 3137 3136 3134 3132 3132 3131 3130 3129 3128 3126 3124 3121 3119 3116 3115 3114 3111 3109 3106 3104 3102 3099 3097 3096 3093 3090 3086 3082 3080 3077 3072 3068 3067 3060 3054 3055 3053 3046 3041 3037 3033 3031 3029 3025 3020 3017 3014 3011 3008 3004 3001 2997 2992 2987
3154 3154 3154 3154 3154 3155 3154 3154 3154 3154 3154 3153 3153 3153 3152 3154 3157 3158 3157 3157 3157 3156 3155 3154 3153 3151 3149 3148 3147 3145 3143 3141 3140 3139 3138 3137 3135 3134 3133 3132 3131 3130 3128 3126 3125 3123 3121 3117 3116 3115 3112 3109 3106 3105 3103 3099 3097 3096 3094 3093 3091 3090 3089 3083 3076 3072 3068 3058 3051 3051 3048 3043 3040 3036 3032 3029 3026 3022 3018 3016 3013 3009 3005 3000 2997 2994 2989 2983
3155 3155 3155 3155 3156 3156 3156 3155 3155 3155 3154 3154 3154 3153 3153 3156 3158 3158 3158 3158 3157 3156 3155 3154 3153 3152 3150 3149 3147 3145 3144 3142 3141 3139 3138 3137 3136 3135 3134 3132 3131 3130 3128 3127 3126 3124 3122 3119 3116 3115 3112 3109 3106 3105 3103 3100 3098 3097 3095 3094 3092 3091 3090 3084 3077 3075 3070 3059 3051 3048 3044 3041 3040 3034 3029 3026 3024 3020 3016 3013 3011 3008 3002 2997 2993 2991 2986 2980
3156 3156 3157 3157 3157 3157 3157 3156 3156 3156 3155 3155 3155 3154 3155 3157 3159 3159 3158 3158 3157 3156 3155 3154 3153 3152 3151 3149 3148 3146 3145 3143 3141 3140 3138 3137 3136 3135 3134 3133 3131 3129 3127 3126 3125 3123 3121 3118 3115 3114 3111 3108 3106 3104 3102 3100 3099 3096 3094 3094 3091 3089 3087 3083 3077 3072 3069 3060 3050 3046 3040 3037 3037 3032 3026 3025 3023 3019 3015 3011 3009 3006 3000 2994 2990 2987 2982 2977
3158 3158 3158 3158 3158 3158 3157 3157 3157 3156 3155 3156 3156 3156 3157 3159 3159 3159 3158 3158 3157 3156 3155 3155 3154 3153 3151 3150 3148 3147 3145 3143 3142 3141 3139 3138 3136 3135 3134 3133 3131 3129 3127 3126 3125 3123 3121 3117 3114 3113 3111 3107 3105 3102 3100 3099 3098 3096 3094 3092 3089 3086 3085 3084 3078 3070 3066 3059 3048 3044 3040 3034 3033 3030 3025 3024 3021 3018 3015 3010 3005 3001 2996 2991 2987 2983 2979 2973
3160 3160 3160 3160 3159 3159 3158 3158 3157 3156 3156 3157 3157 3157 3159 3159 3159 3159 3159 3158 3158 3157 3156 3155 3154 3153 3152 3150 3149 3147 3145 3144 3142 3141 3140 3138 3137 3135 3134 3133 3131 3130 3128 3127 3125 3123 3120 3116 3113 3113 3110 3106 3103 3101 3099 3098 3097 3095 3093 3089 3088 3088 3086 3085 3082 3074 3068 3058 3045 3041 3040 3033 3031 3029 3024 3022 3018 3015 3012 3007 3002 2997 2992 2988 2983 2979 2974 2969
3162 3162 3162 3161 3160 3159 3159 3158 3157 3158 3158 3158 3157 3158 3160 3160 3159 3159 3159 3158 3158 3157 3156 3155 3154 3153 3152 3150 3149 3147 3145 3144 3142 3141 3140 3139 3137 3136 3134 3132 3131 3130 3128 3127 3124 3122 3120 3117 3114 3112 3110 3106 3103 3102 3102 3099 3096 3093 3092 3090 3089 3090 3087 3084 3083 3078 3071 3060 3045 3038 3035 3030 3030 3029 3024 3021 3017 3012 3007 3002 2999 2994 2988 2985 2980 2975 2970 2965
3164 3163 3162 3162 3161 3159 3158 3159 3159 3160 3159 3158 3159 3159 3160 3160 3160 3160 3159 3159 3158 3157 3157 3156 3155 3153 3152 3150 3148 3146 3145 3143 3142 3141 3140 3138 3137 3135 3134 3132 3131 3130 3128 3127 3124 3122 3120 3118 3115 3109 3108 3107 3105 3104 3102 3099 3097 3094 3092 3091 3088 3087 3086 3083 3081 3078 3075 3065 3051 3042 3032 3023 3027 3030 3024 3020 3016 3010 3006 3000 2994 2991 2986 2982 2977 2972 2967 2961
3165 3164 3163 3163 3162 3160 3160 3162 3163 3162 3159 3159 3160 3160 3160 3160 3160 3160 3160 3159 3158 3158 3157 3156 3155 3153 3151 3150 3148 3146 3145 3143 3142 3141 3139 3138 3137 3135 3134 3132 3131 3129 3128 3126 3124 3122 3120 3119 3115 3109 3106 3106 3105 3103 3100 3097 3096 3093 3091 3090 3087 3085 3084 3081 3078 3074 3075 3069 3057 3049 3032 3016 3023 3030 3024 3020 3015 3008 3005 2998 2991 2988 2983 2978 2974 2969 2964 2957
3166 3165 3164 3164 3163 3162 3164 3165 3163 3162 3161 3161 3161 3161 3161 3161 3161 3161 3160 3160 3159 3158 3157 3156 3155 3153 3151 3150 3148 3146 3145 3143 3142 3141 3139 3138 3137 3135 3134 3132 3130 3129 3127 3126 3124 3122 3120 3118 3115 3110 3108 3106 3103 3100 3097 3095 3093 3089 3087 3086 3085 3084 3083 3083 3078 3070 3069 3065 3057 3052 3034 3014 3021 3029 3022 3018 3013 3006 3002 2996 2989 2985 2980 2974 2969 2964 2959 2953
3167 3166 3166 3166 3164 3164 3166 3165 3164 3164 3163 3162 3162 3162 3162 3162 3161 3161 3161 3160 3159 3158 3157 3156 3154 3153 3151 3150 3148 3146 3144 3143 3141 3140 3139 3138 3136 3135 3133 3132 3130 3128 3127 3125 3123 3122 3120 3117 3115 3110 3107 3104 3101 3098 3096 3093 3092 3090 3088 3085 3084 3083 3082 3082 3079 3071 3065 3059 3054 3049 3029 3010 3017 3026 3020 3016 3010 3003 2999 2994 2988 2982 2975 2970 2965 2958 2954 2948
3169 3168 3168 3167 3167 3167 3167 3165 3165 3165 3163 3163 3163 3163 3162 3162 3162 3162 3161 3160 3160 3158 3157 3156 3154 3153 3151 3149 3148 3146 3144 3143 3141 3140 3139 3137 3135 3134 3133 3131 3130 3128 3126 3125 3123 3122 3120 3119 3117 3111 3106 3102 3099 3097 3095 3093 3092 3092 3090 3087 3083 3082 3080 3078 3075 3070 3063 3057 3055 3050 3026 3006 3011 3019 3017 3013 3006 2999 2996 2991 2985 2978 2970 2965 2961 2955 2950 2944
3171 3170 3169 3169 3169 3169 3167 3166 3166 3165 3164 3164 3164 3164 3164 3163 3163 3162 3162 3161 3160 3159 3157 3156 3154 3153 3151 3149 3148 3146 3145 3143 3141 3140 3138 3137 3135 3134 3132 3131 3129 3128 3126 3124 3123 3122 3120 3119 3118 3116 3113 3109 3104 3102 3099 3095 3092 3089 3088 3086 3082 3079 3078 3075 3072 3067 3059 3053 3051 3048 3028 3006 3006 3013 3012 3008 3001 2995 2992 2987 2981 2975 2967 2961 2956 2950 2945 2939
3174 3172 3172 3171 3171 3170 3168 3167 3167 3166 3166 3166 3165 3165 3165 3164 3164 3163 3162 3161 3160 3159 3157 3156 3154 3153 3151 3149 3147 3146 3144 3143 3141 3140 3138 3136 3134 3133 3132 3130 3129 3127 3126 3124 3122 3121 3120 3118 3118 3118 3116 3113 3109 3105 3101 3096 3091 3087 3085 3083 3081 3078 3075 3074 3071 3065 3058 3049 3042 3040 3032 3012 3002 3006 3007 3003 2997 2992 2987 2982 2976 2970 2963 2957 2952 2947 2941 2935
3176 3174 3174 3173 3172 3171 3170 3168 3168 3168 3167 3167 3167 3166 3166 3165 3164 3164 3162 3161 3160 3159 3157 3156 3154 3153 3151 3149 3147 3146 3144 3142 3141 3139 3137 3136 3134 3133 3131 3130 3128 3127 3125 3124 3122 3120 3118 3117 3117 3115 3113 3111 3107 3102 3097 3094 3090 3086 3083 3081 3079 3076 3072 3070 3069 3063 3059 3051 3033 3026 3028 3016 3002 3002 3004 3000 2994 2989 2983 2978 2972 2965 2958 2952 2947 2942 2936 2930
3177 3176 3175 3174 3173 3173 3171 3170 3170 3169 3169 3169 3168 3168 3167 3166 3165 3164 3163 3161 3160 3158 3157 3155 3154 3153 3151 3149 3148 3146 3144 3142 3141 3139 3137 3135 3134 3132 3131 3129 3128 3126 3125 3123 3121 3119 3117 3116 3114 3112 3110 3107 3103 3098 3094 3092 3088 3085 3082 3079 3077 3075 3071 3067 3065 3061 3060 3055 3036 3023 3022 3016 3005 3001 3000 2997 2993 2987 2981 2975 2969 2963 2955 2948 2942 2935 2929 2923
3179 3178 3177 3176 3175 3174 3173 3172 3171 3171 3170 3170 3169 3168 3167 3166 3165 3164 3163 3161 3160 3158 3156 3155 3154 3152 3151 3149 3148 3146 3144 3142 3140 3138 3137 3135 3134 3132 3131 3129 3127 3126 3124 3123 3121 3119 3117 3115 3112 3109 3106 3103 3100 3097 3093 3089 3085 3082 3080 3078 3076 3073 3070 3066 3062 3059 3056 3052 3041 3030 3022 3015 3010 3004 2999 2996 2992 2986 2980 2974 2967 2959 2950 2943 2936 2929 2923 2918
3181 3179 3178 3177 3176 3175 3174 3173 3173 3172 3172 3171 3170 3169 3168 3167 3165 3164 3163 3161 3160 3158 3156 3155 3153 3151 3150 3149 3147 3146 3144 3142 3140 3138 3136 3135 3133 3132 3130 3129 3127 3125 3124 3122 3120 3118 3116 3114 3110 3106 3102 3099 3098 3094 3090 3085 3082 3080 3078 3077 3074 3070 3067 3064 3060 3055 3049 3041 3034 3030 3021 3012 3009 3005 2998 2994 2989 2983 2977 2970 2963 2955 2946 2938 2930 2924 2918 2913
3182 3181 3180 3179 3178 3176 3175 3175 3174 3173 3173 3172 3171 3170 3169 3167 3166 3164 3162 3161 3159 3158 3156 3154 3153 3151 3149 3148 3147 3145 3143 3142 3140 3138 3136 3134 3132 3131 3129 3128 3126 3125 3123 3121 3119 3117 3115 3112 3108 3103 3099 3098 3096 3090 3085 3082 3079 3078 3076 3074 3072 3068 3063 3061 3059 3054 3047 3036 3026 3021 3015 3007 3003 2999 2993 2989 2986 2980 2973 2966 2960 2953 2945 2936 2927 2920 2913 2907
3184 3182 3181 3180 3179 3178 3177 3176 3175 3174 3173 3172 3171 3170 3169 3167 3166 3164 3162 3161 3159 3157 3156 3154 3152 3150 3149 3147 3146 3144 3142 3140 3138 3137 3135 3133 3131 3130 3129 3127 3126 3124 3122 3120 3118 3116 3113 3110 3106 3103 3098 3094 3092 3087 3083 3079 3078 3077 3076 3073 3070 3067 3062 3057 3054 3051 3047 3039 3028 3019 3013 3007 3001 2994 2985 2980 2979 2977 2970 2964 2959 2952 2944 2936 2927 2920 2912 2904